Destin, FL

1:22 AM CDT on August 26, 2016 (GMT -0500)
Destin-Fort Walton Beach

Weather History for KDTS - January, 2013

Change the Weather History Date:

Saturday, January 12, 2013

  Actual Average Record
Temperature  
Mean Temperature 68 °F -  
Max Temperature 72 °F 58 °F 72 °F (2000)
Min Temperature 64 °F 43 °F 28 °F (2011)
Cooling Degree Days 3    
Growing Degree Days 18 (Base 50)    
Moisture  
Dew Point 65 °F    
Average Humidity 90    
Maximum Humidity 100    
Minimum Humidity 78    
Precipitation  
Precipitation 0.00 in - - ()
Sea Level Pressure  
Sea Level Pressure 30.09 in    
Wind  
Wind Speed 8 mph (SE)    
Max Wind Speed 13 mph    
Max Gust Speed 17 mph    
Visibility 6 miles    
Events Fog    
Averages and records for this station are not official NWS values.
T = Trace of Precipitation, MM = Missing Value Source: NWS Daily Summary

Daily Weather History Graph

Daily Weather History Graph

Search for Another Location

Airport or City:

Trip Planner

Search our weather history database for the weather conditions in past years. The results will help you decide how hot, cold, wet, or windy it might be!

Date:

Astronomy

Jan. 12, 2013 Rise Set
Actual Time 6:43 AM CST 5:05 PM CST
Civil Twilight 6:17 AM CST 5:31 PM CST
Nautical Twilight 5:47 AM CST 6:00 PM CST
Astronomical Twilight 5:18 AM CST 6:29 PM CST
Moon 7:08 AM CST (1/12) 6:24 PM CST (1/12)
Length of Visible Light 11h 13m
Length of Day
10h 21m
New Moon, 1% of the Moon is Illuminated
Jan 12
New Moon
Jan 18
First Quarter
Jan 26
Full
Feb 3
Last Quarter
Feb 10
New

Hourly Weather History & Observations

Time (CST) Temp. Dew Point Humidity Pressure Visibility Wind Dir Wind Speed Gust Speed Precip Events Conditions
12:04 AM 64.4 °F 64.4 °F 100% 30.13 in 1.8 mi ESE 5.8 mph - N/A   Overcast
12:53 AM 64.9 °F 63.0 °F 93% 30.12 in 1.8 mi ESE 6.9 mph - N/A   Overcast
1:00 AM 64.4 °F 62.6 °F 94% 30.12 in 2.5 mi SE 5.8 mph - N/A   Overcast
1:07 AM 64.4 °F 62.6 °F 94% 30.12 in 3.0 mi ESE 5.8 mph - N/A   Overcast
1:53 AM 64.9 °F 63.0 °F 93% 30.12 in 4.0 mi ESE 4.6 mph - N/A   Overcast
2:23 AM 64.4 °F 62.6 °F 94% 30.12 in 1.8 mi ESE 6.9 mph - N/A   Overcast
2:53 AM 66.0 °F 64.0 °F 93% 30.11 in 1.2 mi ESE 9.2 mph - N/A   Overcast
3:22 AM 66.2 °F 64.4 °F 94% 30.10 in 0.5 mi ESE 8.1 mph - N/A Fog Fog
3:53 AM 64.9 °F 64.0 °F 97% 30.09 in 0.2 mi ESE 8.1 mph - N/A Fog Fog
4:53 AM 64.9 °F 63.0 °F 93% 30.09 in 0.2 mi ESE 6.9 mph - N/A Fog Fog
5:41 AM 66.2 °F 64.4 °F 94% 30.10 in 2.0 mi ESE 10.4 mph - N/A   Overcast
5:49 AM 66.2 °F 64.4 °F 94% 30.10 in 6.0 mi SE 11.5 mph 17.3 mph N/A   Overcast
5:53 AM 66.0 °F 64.9 °F 96% 30.10 in 7.0 mi SE 10.4 mph 17.3 mph N/A   Mostly Cloudy
6:12 AM 66.2 °F 64.4 °F 94% 30.11 in 10.0 mi SE 8.1 mph - N/A   Scattered Clouds
6:53 AM 64.9 °F 64.0 °F 97% 30.11 in 5.0 mi ESE 5.8 mph - N/A   Scattered Clouds
7:02 AM 66.2 °F 64.4 °F 94% 30.11 in 5.0 mi ESE 5.8 mph - N/A   Mostly Cloudy
7:18 AM 66.2 °F 64.4 °F 94% 30.11 in 4.0 mi ESE 9.2 mph - N/A   Overcast
7:53 AM 66.0 °F 64.0 °F 93% 30.12 in 5.0 mi ESE 8.1 mph - N/A   Overcast
8:17 AM 66.2 °F 64.4 °F 94% 30.13 in 7.0 mi ESE 8.1 mph - N/A   Mostly Cloudy
8:26 AM 66.2 °F 64.4 °F 94% 30.13 in 7.0 mi ESE 9.2 mph - N/A   Scattered Clouds
8:53 AM 68.0 °F 64.0 °F 87% 30.14 in 10.0 mi ESE 9.2 mph - N/A   Clear
9:53 AM 70.0 °F 64.0 °F 81% 30.14 in 10.0 mi ESE 12.7 mph - N/A   Clear
10:53 AM 71.1 °F 64.9 °F 81% 30.13 in 10.0 mi SE 10.4 mph - N/A   Clear
11:53 AM 71.1 °F 64.9 °F 81% 30.10 in 10.0 mi SE 12.7 mph - N/A   Clear
12:53 PM 72.0 °F 64.9 °F 78% 30.09 in 10.0 mi SE 10.4 mph - N/A   Clear
1:53 PM 71.1 °F 64.9 °F 81% 30.07 in 10.0 mi SE 11.5 mph - N/A   Clear
2:53 PM 70.0 °F 64.9 °F 84% 30.06 in 10.0 mi SE 11.5 mph - N/A   Scattered Clouds
2:55 PM 69.8 °F 64.4 °F 83% 30.05 in 10.0 mi SE 10.4 mph - N/A   Mostly Cloudy
3:04 PM 69.8 °F 64.4 °F 83% 30.06 in 10.0 mi ESE 10.4 mph - N/A   Mostly Cloudy
3:22 PM 69.8 °F 64.4 °F 83% 30.07 in 9.0 mi SE 8.1 mph - N/A   Overcast
3:53 PM 70.0 °F 66.0 °F 87% 30.07 in 10.0 mi SE 9.2 mph - N/A   Overcast
4:03 PM 69.8 °F 66.2 °F 88% 30.06 in 9.0 mi SE 9.2 mph - N/A   Overcast
4:18 PM 69.8 °F 64.4 °F 83% 30.06 in 8.0 mi ESE 10.4 mph - N/A   Overcast
4:53 PM 68.0 °F 66.0 °F 93% 30.06 in 6.0 mi ESE 8.1 mph - N/A   Overcast
5:23 PM 68.0 °F 64.4 °F 88% 30.06 in 6.0 mi ESE 8.1 mph - N/A   Overcast
5:53 PM 69.1 °F 66.0 °F 90% 30.06 in 7.0 mi SE 9.2 mph - N/A   Overcast
6:53 PM 68.0 °F 64.9 °F 90% 30.06 in 5.0 mi ESE 6.9 mph - N/A   Overcast
7:23 PM 68.0 °F 66.2 °F 94% 30.04 in 5.0 mi SE 10.4 mph - N/A   Overcast
7:53 PM 69.1 °F 66.0 °F 90% 30.04 in 6.0 mi SE 11.5 mph - N/A   Overcast
8:53 PM 68.0 °F 66.0 °F 93% 30.06 in 6.0 mi SE 8.1 mph - N/A   Overcast
9:53 PM 68.0 °F 64.9 °F 90% 30.04 in 2.5 mi ESE 10.4 mph - N/A   Overcast
10:05 PM 68.0 °F 64.4 °F 88% 30.03 in 4.0 mi SE 12.7 mph - N/A   Overcast
10:53 PM 68.0 °F 66.0 °F 93% 30.04 in 6.0 mi SE 9.2 mph - N/A   Overcast
11:23 PM 66.2 °F 64.4 °F 94% 30.03 in 2.5 mi ESE 9.2 mph - N/A   Overcast
11:33 PM 66.2 °F 64.4 °F 94% 30.03 in 3.0 mi ESE 8.1 mph - N/A   Overcast
11:53 PM 68.0 °F 66.0 °F 93% 30.03 in 5.0 mi SE 9.2 mph - N/A   Overcast